Location: BS-Broitzem
(52.2300°N, 10.4800°E)
Time: 19:46:59
(UTC+01:00)

BlueWalker 3 - Pass Details

Date: 12 December 2025
Orbit: 451 x 462 km, 53.2° (Epoch: 22 January)

Event Time Altitude Azimuth Distance (km) Brightness Sun altitude
Rises 16:43:06 0° 285° (WNW) 2,498 6.2 -5.6°
Reaches altitude 10° 16:45:41 10° 267° (W) 1,620 5.7 -5.9°
Maximum altitude 16:48:18 19° 221° (SW) 1,172 5.0 -6.3°
Drops below altitude 10° 16:50:56 10° 175° (S) 1,615 4.9 -6.6°
Sets 16:53:30 0° 156° (SSE) 2,487 5.5 -7.0°
